Regional Weather Roundup
Issued by NWS

Home | Current Version | Previous Version | Graphics & Text | Print | Product List | Glossary On
Versions: 1 2 3 4 5 6 7 8 9 10 11 12 13 14 15 16 17 18 19 20 21 22 23 24 25 26 27 28 29 30 31 32 33 34 35 36 37 38 39 40 41 42 43 44 45 46 47 48 49 50
000
ASUS43 KBIS 270410
RWRND

NORTH DAKOTA REGIONAL WEATHER ROUNDUP
NATIONAL WEATHER SERVICE BISMARCK ND
1100 PM CDT TUE AUG 26 2014

NOTE: "FAIR" INDICATES FEW OR NO CLOUDS BELOW 12,000 FEET WITH NO
SIGNIFICANT WEATHER AND/OR OBSTRUCTIONS TO VISIBILITY.


NDZ001>003-009>011-017-270500-
NORTHWEST NORTH DAKOTA

CITY           SKY/WX    TMP DP  RH WIND       PRES   REMARKS
WILLISTON      CLEAR     54  48  80 CALM      30.12R
MINOT          CLEAR     60  49  66 S8        30.14R
MINOT AFB      CLEAR     52  50  93 SW8       30.14R
$$

NDZ018>021-031>035-040>046-270500-
SOUTHWEST NORTH DAKOTA

CITY           SKY/WX    TMP DP  RH WIND       PRES   REMARKS
BISMARCK       CLOUDY    56  54  93 NE3       30.19R
DICKINSON      CLEAR     52  51  97 SE8       30.16R
GARRISON         N/A     55  53  93 S7        30.16R
HETTINGER ARPT CLEAR     53  50  89 E3        30.19R
$$

NDZ004>008-012>016-024-026-027-054-270500-
NORTHEAST NORTH DAKOTA

CITY           SKY/WX    TMP DP  RH WIND       PRES   REMARKS
GRAND FORKS    PTCLDY    56  54  93 SW6       30.15R
GRND FRKS AFB  CLEAR     54  53  99 SW6       30.15S
DEVILS LAKE    CLEAR     55  46  71 S3        30.15R
$$

NDZ022-023-025-028>030-036>039-047>053-270500-
SOUTHEAST NORTH DAKOTA

CITY           SKY/WX    TMP DP  RH WIND       PRES   REMARKS
FARGO          MOCLDY    59  57  93 W3        30.18R
JAMESTOWN      PTCLDY    55  54  96 S3        30.19R
$$



USA.gov is the U.S. government's official web portal to all federal, state and local government web resources and services.